[[{"header":{"parameterUnit":"m.s-1","parameterCategory":2,"la1":30.2991,"la2":30.254,"lo1":-89.0895,"lo2":-89.0444,"dy":0.0017,"dx":0.0017,"nx":28,"ny":28,"refTime":"2024-07-02T21:00:00:Z","depth":"0","parameterNumber":2,"parameterNumberName":"U-component_of_CURRENTS"},"data":[0,0,0,0,0,0,0,0,0,0,0,0,0,0,0,0,0,0,0,0,0,0,0,0,0,0,0,0,0,0,0,0,0,0,0,0,0,0,0,0,0,0,0,0,0,0,0,0,0,0,0,0,0,0,0,0,0,0,0.3448,0.3448,0,0.3463,0.3463,0.3463,0.3428,0.3427,0.3426,0.3425,0.3418,0.3418,0.3419,0,0,0,0,0,0,0,0,0,0,0,0,0,0.3442,0.3442,0.3447,0.3448,0.3448,0.3463,0.3463,0.3463,0.3428,0.3427,0.3425,0.3424,0.3417,0.3418,0.3419,0,0,0,0,0,0,0,0,0,0,0,0,0,0.3449,0.3442,0.3447,0.3433,0.3432,0.3463,0.3463,0.3463,0.3428,0.3427,0.3425,0.3424,0.3417,0.3418,0.3419,0.3458,0,0,0.3423,0.3423,0,0,0,0,0,0,0,0,0.3448,0.3449,0.3435,0.3434,0.3433,0.3443,0.3458,0.3461,0.3429,0.3429,0.3425,0.3423,0.3426,0.3426,0.3431,0.3458,0.3458,0.3423,0.3424,0.3424,0.3425,0,0,0,0,0,0,0,0.3448,0.3448,0.3453,0.3435,0.3434,0.3444,0.3443,0.3459,0.3435,0.3429,0.3426,0.343,0.3424,0.343,0.3431,0.3457,0.3423,0.3424,0.3425,0.3425,0.3537,0.3539,0,0,0,0,0,0,0.3446,0.3448,0.3452,0.3453,0.3438,0.3445,0.3444,0.344,0.3435,0.3433,0.3431,0.3428,0.3429,0.343,0.3431,0.3495,0.3424,0.3425,0.3426,0.3535,0.3537,0.354,0,0,0,0,0,0,0.3446,0.3447,0.3452,0.3452,0.3453,0.3447,0.3443,0.3441,0.3452,0.3437,0.3434,0.3444,0.3428,0.3429,0.3456,0.3493,0.3426,0.3427,0.3532,0.3536,0.3539,0.3612,0,0,0,0,0,0,0.3446,0.3446,0.3453,0.3452,0.3453,0.3481,0.3445,0.3443,0.3457,0.3453,0.3448,0.3445,0.3427,0.3454,0.3457,0.3494,0.3428,0.3529,0.3534,0.3538,0.3606,0.3617,0.3626,0,0,0,0,0,0.3446,0.3458,0.3453,0.3454,0.3459,0.3483,0.3486,0.3475,0.3459,0.3476,0.347,0.3445,0.3483,0.3457,0.346,0.3498,0.3527,0.3532,0.3537,0.3602,0.3615,0.3626,0,0,0,0,0,0,0.346,0.3455,0.345,0.346,0.3477,0.3477,0.3493,0.3488,0.3499,0.3493,0.3473,0.3472,0.351,0.3501,0.3473,0.3545,0.3502,0.3508,0.3551,0.3563,0.3573,0.3582,0.3429,0,0,0,0,0,0.3467,0.3473,0.3478,0.349,0.3499,0.3501,0.3512,0.3507,0.3513,0.3515,0.3504,0.3509,0.3536,0.3544,0.3555,0.3597,0.3617,0.3626,0.3636,0.3644,0.3655,0.3742,0.3761,0.3557,0.3557,0.3556,0,0,0.3475,0.3477,0.3479,0.3495,0.3503,0.353,0.3504,0.3526,0.3549,0.3515,0.3537,0.3542,0.3555,0.3597,0.3614,0.3592,0.3711,0.3651,0.3657,0.3664,0.3749,0.3769,0.3787,0.356,0.3559,0.3559,0,0,0.3507,0.3499,0.3521,0.3537,0.3558,0.356,0.3571,0.3576,0.358,0.3614,0.3598,0.3627,0.3651,0.3668,0.3684,0.3762,0.3762,0.3767,0.3825,0.3909,0.3927,0.3943,0.3985,0.4004,0.3772,0.3772,0.3773,0,0.3522,0.3542,0.3536,0.3567,0.3584,0.3577,0.3613,0.3625,0.3635,0.3658,0.363,0.37,0.3691,0.3773,0.3787,0.3784,0.3822,0.3774,0.3923,0.3939,0.3954,0.3993,0.4013,0.3777,0.3776,0.3776,0.3775,0,0.3571,0.359,0.3608,0.3636,0.366,0.3687,0.3701,0.372,0.3721,0.3737,0.3806,0.3807,0.3855,0.3857,0.3841,0.3948,0.3936,0.3925,0.3891,0.3979,0.4014,0.4034,0.3782,0.3781,0.378,0.3779,0,0,0.3594,0.3633,0.364,0.3663,0.3695,0.3717,0.3764,0.3814,0.3865,0.3874,0.3956,0.3981,0.3987,0.4007,0.4002,0.4055,0.4169,0.4035,0.4037,0.4073,0.4345,0.421,0.4218,0.4196,0.42,0.4204,0.4323,0,0.3637,0.3692,0.3709,0.3767,0.3792,0.3809,0.3861,0.3904,0.3943,0.4015,0.4042,0.4113,0.4048,0.4088,0.4135,0.418,0.4226,0.4136,0.4257,0.426,0.4128,0.4238,0.4031,0.411,0.4342,0.4345,0.4348,0,0.3674,0.3708,0.3763,0.3825,0.3844,0.3882,0.3966,0.4015,0.4113,0.4152,0.4227,0.4257,0.4345,0.4275,0.4395,0.4349,0.435,0.436,0.4366,0.4229,0.4162,0.4063,0.4136,0.4034,0.4377,0.4375,0.4373,0,0.367,0.3743,0.3783,0.3801,0.3874,0.3916,0.3964,0.4056,0.4119,0.4252,0.4328,0.4427,0.4496,0.4544,0.4544,0.45,0.4666,0.4613,0.4485,0.4475,0.4313,0.4281,0.4296,0.4692,0.4692,0.4692,0.4691,0,0.3688,0.3722,0.3783,0.3804,0.3873,0.393,0.4022,0.409,0.422,0.4309,0.4401,0.4495,0.4572,0.4657,0.4636,0.4629,0.4748,0.4519,0.4514,0.4328,0.4298,0.4209,0.4169,0.4696,0.4695,0.4694,0.4693,0,0.3661,0.37,0.3749,0.3836,0.3863,0.3911,0.4029,0.4106,0.4237,0.4368,0.4422,0.4591,0.4692,0.4739,0.4826,0.4736,0.4608,0.4701,0.4451,0.4411,0.4137,0.4108,0.3985,0.388,0.4587,0.4584,0.4582,0,0.3647,0.3669,0.3749,0.3777,0.3814,0.389,0.3949,0.4086,0.4164,0.4399,0.4462,0.4632,0.4693,0.4785,0.4679,0.4643,0.4533,0.4415,0.4268,0.4115,0.4083,0.3943,0.3854,0.4091,0.4085,0.4081,0.4077,0,0.3632,0.3658,0.3698,0.3749,0.3804,0.3859,0.3952,0.4011,0.4177,0.429,0.4448,0.4537,0.4606,0.4473,0.4421,0.4368,0.4193,0.4309,0.4246,0.3775,0.3534,0.343,0.4004,0.4034,0.4038,0.4042,0.4044,0.4046,0.3621,0.3634,0.3685,0.3709,0.3763,0.3801,0.3789,0.3896,0.3985,0.4064,0.4276,0.4275,0.4265,0.4146,0.4088,0.3836,0.3853,0.3672,0.3677,0.357,0.337,0.3819,0.3775,0.3777,0.378,0.3782,0.3784,0,0.3601,0.3613,0.3643,0.3656,0.3642,0.3708,0.3757,0.3706,0.3709,0.3803,0.3865,0.381,0.3663,0.3628,0.3425,0.3248,0.3107,0.3157,0.2944,0.2912,0.3403,0.3281,0.3011,0.3011,0.3011,0.3011,0.3011,0.3011,0.3608,0.3602,0.3586,0.3516,0.3507,0.343,0.3407,0.3365,0.3361,0.3255,0.317,0.3209,0.3303,0.3181,0.2969,0.2889,0.2703,0.2506,0.2572,0.295,0.2999,0.3045,0.2923,0.2582,0.2581,0.1932,0.1927,0.1924]},{"header":{"parameterUnit":"m.s-1","parameterCategory":2,"la1":30.2991,"la2":30.254,"lo1":-89.0895,"lo2":-89.0444,"dy":0.0017,"dx":0.0017,"nx":28,"ny":28,"refTime":"2024-07-02T21:00:00:Z","depth":"0","parameterNumber":3,"parameterNumberName":"V-component_of_CURRENTS"},"data":[0,0,0,0,0,0,0,0,0,0,0,0,0,0,0,0,0,0,0,0,0,0,0,0,0,0,0,0,0,0,0,0,0,0,0,0,0,0,0,0,0,0,0,0,0,0,0,0,0,0,0,0,0,0,0,0,0,0,0.0353,0.0353,0,0.0345,0.0345,0.0345,0.0318,0.0318,0.0317,0.0317,0.027,0.0269,0.0269,0,0,0,0,0,0,0,0,0,0,0,0,0,0.0318,0.0319,0.0353,0.0353,0.0353,0.0345,0.0345,0.0345,0.0318,0.0318,0.0317,0.0317,0.027,0.027,0.0269,0,0,0,0,0,0,0,0,0,0,0,0,0,0.0324,0.032,0.0353,0.034,0.0338,0.0345,0.0345,0.0345,0.0319,0.0318,0.0317,0.0316,0.0271,0.027,0.0269,0.0278,0,0,0.0265,0.0265,0,0,0,0,0,0,0,0,0.0323,0.0325,0.0342,0.0341,0.0339,0.0332,0.0315,0.0321,0.0319,0.0325,0.0317,0.0316,0.0288,0.0286,0.0286,0.0275,0.0273,0.0265,0.0264,0.0264,0.0264,0,0,0,0,0,0,0,0.0323,0.0325,0.0349,0.0342,0.034,0.0324,0.0324,0.0316,0.031,0.0325,0.0323,0.0323,0.0287,0.0287,0.0284,0.0273,0.0265,0.0264,0.0263,0.0263,0.028,0.0281,0,0,0,0,0,0,0.0328,0.0325,0.035,0.0349,0.033,0.0326,0.0326,0.0335,0.0311,0.0307,0.0324,0.0322,0.0289,0.0286,0.0283,0.0313,0.0264,0.0263,0.0262,0.0279,0.028,0.0281,0,0,0,0,0,0,0.0327,0.0331,0.035,0.0337,0.0338,0.0327,0.0338,0.0335,0.0336,0.0311,0.0306,0.0328,0.0288,0.0284,0.0286,0.031,0.0262,0.0261,0.0277,0.0279,0.028,0.0359,0,0,0,0,0,0,0.0327,0.0331,0.034,0.0337,0.0339,0.0366,0.0339,0.0336,0.0338,0.0335,0.0313,0.0308,0.0287,0.0288,0.0285,0.0307,0.026,0.0276,0.0278,0.028,0.0355,0.0363,0.037,0,0,0,0,0,0.0326,0.0346,0.0341,0.0344,0.0352,0.0367,0.0367,0.0356,0.0339,0.0351,0.0334,0.0308,0.0299,0.0288,0.0284,0.0307,0.0275,0.0277,0.028,0.0352,0.0362,0.037,0,0,0,0,0,0,0.0332,0.0346,0.0339,0.0361,0.0368,0.0363,0.0373,0.0362,0.0358,0.0353,0.0323,0.0318,0.0328,0.0308,0.0296,0.0318,0.0282,0.0284,0.0338,0.0347,0.0355,0.0381,0.0259,0,0,0,0,0,0.034,0.0361,0.0365,0.0383,0.0389,0.0381,0.0384,0.0378,0.0374,0.0371,0.0353,0.0338,0.0337,0.0334,0.0325,0.0338,0.031,0.0349,0.0357,0.0364,0.0383,0.037,0.0378,0.0289,0.0289,0.0289,0,0,0.0345,0.0356,0.0366,0.0386,0.0388,0.0415,0.0381,0.0395,0.0418,0.0367,0.0386,0.0363,0.0346,0.0361,0.0364,0.0347,0.0369,0.0367,0.0373,0.0388,0.0374,0.0382,0.039,0.0291,0.0291,0.029,0,0,0.0378,0.038,0.0412,0.0425,0.0438,0.0439,0.0447,0.0446,0.0447,0.0464,0.0433,0.0426,0.0421,0.0415,0.0412,0.0456,0.041,0.045,0.0511,0.0499,0.0506,0.0513,0.0466,0.0468,0.0455,0.0455,0.0455,0,0.0382,0.0429,0.0422,0.0458,0.048,0.0456,0.0499,0.0501,0.0499,0.0513,0.0482,0.0482,0.0452,0.0485,0.0495,0.0475,0.045,0.0478,0.051,0.0515,0.052,0.0471,0.0472,0.0459,0.0459,0.0458,0.0458,0,0.0445,0.048,0.0501,0.0544,0.0562,0.0595,0.06,0.0614,0.0605,0.0606,0.0627,0.0586,0.0592,0.0574,0.0548,0.0576,0.0538,0.0519,0.0488,0.0534,0.0479,0.0478,0.0465,0.0463,0.0462,0.0461,0,0,0.0472,0.0534,0.0546,0.0588,0.0615,0.0645,0.0682,0.0723,0.0766,0.0738,0.0793,0.0759,0.0731,0.0725,0.0683,0.0662,0.0652,0.0612,0.0609,0.0568,0.0604,0.057,0.0564,0.0641,0.0642,0.0643,0.0542,0,0.053,0.0622,0.0634,0.0724,0.0775,0.0773,0.0822,0.0847,0.0856,0.0898,0.0854,0.0883,0.0792,0.0802,0.0766,0.0704,0.0658,0.068,0.0564,0.056,0.0527,0.0566,0.0579,0.0492,0.0541,0.0541,0.0541,0,0.06,0.0656,0.0755,0.0841,0.0864,0.0911,0.0994,0.1033,0.1068,0.1076,0.1076,0.1044,0.1025,0.0937,0.0831,0.0852,0.0733,0.0656,0.065,0.0598,0.0527,0.0458,0.0488,0.0384,0.0539,0.0539,0.0539,0,0.0652,0.0747,0.0835,0.0863,0.0947,0.0998,0.1044,0.1092,0.1156,0.1195,0.1247,0.1195,0.1198,0.1065,0.09,0.0872,0.0772,0.0711,0.0553,0.0546,0.0526,0.0518,0.0449,0.0614,0.0614,0.0614,0.0615,0,0.0724,0.0796,0.0873,0.0927,0.1044,0.1072,0.1196,0.1228,0.1306,0.1415,0.1349,0.1422,0.1234,0.1154,0.0966,0.0776,0.0817,0.0576,0.0534,0.055,0.0546,0.0427,0.0334,0.0611,0.0611,0.0612,0.0613,0,0.0776,0.0822,0.0932,0.1036,0.1075,0.1162,0.1296,0.1391,0.1445,0.1586,0.1614,0.1601,0.1502,0.1284,0.1074,0.0877,0.0605,0.0593,0.0608,0.0571,0.0316,0.0226,0.0073,0.0021,0.0403,0.0402,0.0401,0,0.0814,0.0878,0.1011,0.1086,0.114,0.1266,0.1366,0.1452,0.1563,0.1715,0.1802,0.1753,0.1752,0.1423,0.1072,0.073,0.0573,0.0496,0.0438,0.0322,0.019,0.0128,0.0093,0.0419,0.0419,0.0418,0.0418,0,0.0889,0.0935,0.1025,0.1173,0.129,0.143,0.1577,0.1686,0.1821,0.1957,0.2118,0.2134,0.1827,0.1517,0.1035,0.0789,0.0425,0.047,0.0363,0.0215,0.0132,0.0058,0.0438,0.0412,0.0412,0.0413,0.0413,0.0413,0.0944,0.1016,0.1132,0.1271,0.1406,0.1581,0.1709,0.189,0.2094,0.2307,0.2324,0.2362,0.1914,0.1274,0.0958,0.0388,0.0354,0.0202,0.0102,0.0052,0.0014,0.0368,0.0293,0.0293,0.0293,0.0293,0.0293,0,0.1006,0.109,0.1225,0.1395,0.1544,0.1608,0.1845,0.1999,0.2257,0.2421,0.2554,0.2332,0.179,0.1231,0.0455,0.0097,-0.0016,-0.0092,-0.016,-0.018,0.0155,0.0172,0.0055,0.0055,0.0055,0.0055,0.0055,0.0055,0.1047,0.1167,0.1232,0.1472,0.1599,0.1808,0.1945,0.2195,0.2354,0.2553,0.2552,0.2519,0.2091,0.08,-0.0027,-0.0212,-0.0396,-0.048,-0.0573,-0.0328,-0.0307,-0.0286,-0.0287,-0.0499,-0.05,-0.0827,-0.0831,-0.0834]}],[{"header":{"parameterUnit":"m.s-1","parameterCategory":2,"la1":30.2991,"la2":30.254,"lo1":-89.0895,"lo2":-89.0444,"dy":0.0017,"dx":0.0017,"nx":28,"ny":28,"refTime":"2024-07-02T21:00:00:Z","depth":"2","parameterNumber":2,"parameterNumberName":"U-component_of_CURRENTS"},"data":[0,0,0,0,0,0,0,0,0,0,0,0,0,0,0,0,0,0,0,0,0,0,0,0,0,0,0,0,0,0,0,0,0,0,0,0,0,0,0,0,0,0,0,0,0,0,0,0,0,0,0,0,0,0,0,0,0,0,0.2938,0.2938,0,0.2961,0.2961,0.2961,0.2952,0.2952,0.2951,0.2951,0.2964,0.2964,0.2965,0,0,0,0,0,0,0,0,0,0,0,0,0,0.2928,0.2927,0.2938,0.2938,0.2938,0.2961,0.2961,0.2961,0.2952,0.2952,0.2951,0.2951,0.2964,0.2964,0.2965,0,0,0,0,0,0,0,0,0,0,0,0,0,0.2938,0.2927,0.2938,0.2938,0.2938,0.2961,0.2961,0.2961,0.2952,0.2952,0.2951,0.2951,0.2963,0.2964,0.2965,0.2985,0,0,0.2969,0.2969,0,0,0,0,0,0,0,0,0.2938,0.2938,0.2937,0.2938,0.2938,0.2954,0.2962,0.2969,0.2953,0.2946,0.2951,0.295,0.2961,0.2962,0.2966,0.2985,0.2986,0.2969,0.2969,0.297,0.297,0,0,0,0,0,0,0,0.2937,0.2938,0.2946,0.2938,0.2938,0.2951,0.2951,0.2963,0.2955,0.2946,0.2946,0.2951,0.2961,0.2965,0.2966,0.2986,0.2969,0.297,0.297,0.2971,0.307,0.3072,0,0,0,0,0,0,0.2935,0.2937,0.2945,0.2946,0.2938,0.2951,0.2952,0.2949,0.2955,0.2956,0.2951,0.295,0.2964,0.2965,0.2967,0.3037,0.297,0.2971,0.2972,0.3068,0.307,0.3072,0,0,0,0,0,0,0.2934,0.2935,0.2944,0.2944,0.2946,0.2952,0.2949,0.2949,0.2968,0.296,0.296,0.297,0.2963,0.2965,0.2994,0.3035,0.2971,0.2972,0.3066,0.3069,0.3071,0.3146,0,0,0,0,0,0,0.2934,0.2935,0.2942,0.2943,0.2946,0.297,0.295,0.295,0.2971,0.297,0.2976,0.2976,0.2963,0.2993,0.2995,0.3035,0.2973,0.3063,0.3067,0.307,0.3141,0.3151,0.316,0,0,0,0,0,0.2933,0.2942,0.2942,0.2944,0.2952,0.2971,0.2975,0.2976,0.2973,0.2989,0.2993,0.2976,0.3018,0.2995,0.2998,0.3039,0.3061,0.3066,0.307,0.3137,0.3149,0.316,0,0,0,0,0,0,0.2943,0.2942,0.2942,0.2951,0.2967,0.2971,0.2987,0.299,0.3007,0.3009,0.2998,0.2999,0.3041,0.3032,0.3007,0.308,0.3039,0.3044,0.3089,0.3101,0.311,0.3115,0.2974,0,0,0,0,0,0.2949,0.2954,0.2961,0.2972,0.2981,0.299,0.3002,0.3005,0.3016,0.3023,0.3022,0.3034,0.3061,0.3073,0.3085,0.3124,0.3135,0.3154,0.3164,0.3172,0.3179,0.3248,0.3265,0.3087,0.3087,0.3087,0,0,0.2955,0.2958,0.296,0.2975,0.2986,0.3011,0.2996,0.302,0.3046,0.3023,0.3056,0.3066,0.3079,0.3122,0.314,0.312,0.3227,0.3177,0.3184,0.3187,0.3255,0.3272,0.3287,0.309,0.309,0.3089,0,0,0.2974,0.2975,0.299,0.3007,0.3031,0.3038,0.3051,0.3064,0.3077,0.3115,0.3109,0.3143,0.3171,0.319,0.3205,0.3277,0.3274,0.3286,0.3339,0.3407,0.3422,0.3435,0.3464,0.3479,0.3291,0.3291,0.3291,0,0.2988,0.2997,0.3001,0.3027,0.3044,0.3054,0.3082,0.3104,0.3125,0.3148,0.3135,0.3207,0.3207,0.3281,0.3301,0.3299,0.3326,0.3293,0.3419,0.3433,0.3446,0.3472,0.3488,0.3295,0.3295,0.3294,0.3294,0,0.3016,0.3032,0.3046,0.3075,0.3101,0.3125,0.3154,0.3184,0.3201,0.3221,0.3292,0.3304,0.3351,0.336,0.3352,0.3447,0.3434,0.3423,0.339,0.3468,0.349,0.3506,0.3301,0.33,0.3298,0.3297,0,0,0.3013,0.3055,0.306,0.3078,0.3125,0.3143,0.3204,0.3255,0.3302,0.3336,0.3405,0.3451,0.3464,0.3483,0.3488,0.3536,0.3637,0.3522,0.3524,0.3549,0.3775,0.3668,0.3674,0.366,0.3664,0.3666,0.3752,0,0.3032,0.3072,0.3098,0.3144,0.3163,0.3205,0.3257,0.3311,0.3361,0.3429,0.3475,0.354,0.3513,0.355,0.3601,0.3633,0.3684,0.3613,0.3697,0.3698,0.3593,0.3691,0.3376,0.3418,0.3766,0.3769,0.3771,0,0.3043,0.3067,0.3111,0.3164,0.3181,0.3222,0.3308,0.3361,0.3467,0.3511,0.3597,0.3637,0.3726,0.3689,0.3799,0.3762,0.378,0.3791,0.3795,0.368,0.3621,0.3398,0.3433,0.3796,0.3794,0.3792,0.3791,0,0.301,0.307,0.3101,0.312,0.3192,0.3236,0.3286,0.3387,0.3452,0.3581,0.3655,0.375,0.3825,0.3874,0.3906,0.3873,0.4013,0.3968,0.3885,0.3877,0.3614,0.3577,0.4053,0.4053,0.4053,0.4053,0.4053,0,0.3,0.3024,0.309,0.3104,0.3156,0.3224,0.3312,0.3375,0.3506,0.3589,0.3701,0.3784,0.3883,0.397,0.3965,0.398,0.4071,0.3915,0.3907,0.3629,0.3594,0.392,0.3904,0.4056,0.4055,0.4055,0.4054,0,0.2953,0.2999,0.3033,0.311,0.3138,0.318,0.3314,0.3378,0.3516,0.3639,0.3693,0.3855,0.3955,0.403,0.4114,0.4056,0.4071,0.405,0.37,0.3649,0.3868,0.3854,0.3962,0.396,0.3957,0.3955,0.3954,0,0.293,0.2937,0.3013,0.3044,0.3083,0.3167,0.322,0.3357,0.3426,0.3654,0.3692,0.3873,0.393,0.4028,0.3971,0.3962,0.4056,0.3661,0.3531,0.3884,0.3867,0.3857,0.3847,0.321,0.3203,0.3197,0.3192,0,0.288,0.291,0.2944,0.2991,0.3047,0.31,0.3186,0.3244,0.3408,0.3503,0.3612,0.3692,0.3806,0.3652,0.3679,0.3621,0.3632,0.3533,0.403,0.328,0.3182,0.3162,0.3176,0.3137,0.3142,0.3146,0.3149,0.3151,0.2844,0.2845,0.2892,0.2922,0.2974,0.2994,0.2998,0.3084,0.3148,0.3237,0.3408,0.3406,0.3445,0.3303,0.3189,0.3099,0.3341,0.3172,0.3189,0.3213,0.3109,0.3012,0.2913,0.2917,0.2921,0.2924,0.2927,0,0.2777,0.2785,0.2815,0.2831,0.2814,0.2898,0.2928,0.2888,0.2867,0.2987,0.3036,0.281,0.2719,0.2763,0.2526,0.2502,0.2452,0.2403,0.2311,0.2369,0.242,0.2272,0.1857,0.1853,0.185,0.1847,0,0,0.2744,0.2735,0.2726,0.2656,0.267,0.2602,0.2586,0.2526,0.2538,0.2482,0.2448,0.2657,0.2716,0.2278,0.22,0.1989,0.2168,0.1908,0.2774,0.2728,0.2775,0.2877,0.2717,0,0,0,0,0]},{"header":{"parameterUnit":"m.s-1","parameterCategory":2,"la1":30.2991,"la2":30.254,"lo1":-89.0895,"lo2":-89.0444,"dy":0.0017,"dx":0.0017,"nx":28,"ny":28,"refTime":"2024-07-02T21:00:00:Z","depth":"2","parameterNumber":3,"parameterNumberName":"V-component_of_CURRENTS"},"data":[0,0,0,0,0,0,0,0,0,0,0,0,0,0,0,0,0,0,0,0,0,0,0,0,0,0,0,0,0,0,0,0,0,0,0,0,0,0,0,0,0,0,0,0,0,0,0,0,0,0,0,0,0,0,0,0,0,0,0.0216,0.0216,0,0.0212,0.0212,0.0212,0.0194,0.0194,0.0193,0.0193,0.0157,0.0157,0.0156,0,0,0,0,0,0,0,0,0,0,0,0,0,0.0181,0.0182,0.0216,0.0216,0.0216,0.0212,0.0212,0.0212,0.0194,0.0194,0.0193,0.0193,0.0157,0.0157,0.0156,0,0,0,0,0,0,0,0,0,0,0,0,0,0.0189,0.0183,0.0216,0.0207,0.0206,0.0212,0.0212,0.0212,0.0194,0.0194,0.0193,0.0193,0.0158,0.0157,0.0156,0.0162,0,0,0.0153,0.0153,0,0,0,0,0,0,0,0,0.0188,0.019,0.0209,0.0208,0.0207,0.0203,0.0187,0.0194,0.0195,0.0199,0.0193,0.0192,0.017,0.0168,0.0169,0.016,0.0159,0.0153,0.0152,0.0152,0.0152,0,0,0,0,0,0,0,0.0188,0.019,0.0214,0.0209,0.0208,0.0194,0.0195,0.0188,0.0187,0.0198,0.0197,0.0197,0.017,0.017,0.0168,0.0158,0.0153,0.0152,0.0152,0.0151,0.0154,0.0154,0,0,0,0,0,0,0.0191,0.019,0.0215,0.0214,0.0196,0.0195,0.0196,0.0205,0.0188,0.0185,0.0198,0.0196,0.0172,0.0169,0.0166,0.0187,0.0152,0.0151,0.0151,0.0153,0.0154,0.0154,0,0,0,0,0,0,0.0191,0.0194,0.0215,0.0201,0.0203,0.0197,0.0207,0.0205,0.0208,0.0188,0.0184,0.0202,0.0171,0.0168,0.0168,0.0185,0.0151,0.015,0.0152,0.0153,0.0154,0.0219,0,0,0,0,0,0,0.019,0.0194,0.0203,0.0202,0.0204,0.0228,0.0207,0.0205,0.0209,0.0207,0.019,0.0186,0.017,0.017,0.0167,0.0183,0.0149,0.0151,0.0153,0.0154,0.0216,0.0222,0.0227,0,0,0,0,0,0.0189,0.0206,0.0203,0.0206,0.0216,0.0229,0.0229,0.0221,0.021,0.0219,0.0206,0.0187,0.0174,0.017,0.0167,0.0182,0.0151,0.0152,0.0154,0.0213,0.022,0.0226,0,0,0,0,0,0,0.0193,0.0206,0.0203,0.0222,0.0228,0.0226,0.0234,0.0227,0.0225,0.0221,0.0197,0.0193,0.0199,0.0181,0.0176,0.0185,0.0159,0.0159,0.0205,0.0211,0.0217,0.0237,0.0149,0,0,0,0,0,0.0199,0.0217,0.0223,0.0238,0.0244,0.0239,0.0243,0.0239,0.0236,0.0234,0.0221,0.0207,0.0203,0.02,0.0191,0.0198,0.0174,0.0205,0.021,0.0215,0.0228,0.0206,0.0211,0.0159,0.0159,0.0159,0,0,0.0203,0.0214,0.0223,0.0241,0.0244,0.0267,0.024,0.0253,0.0271,0.0231,0.0247,0.0226,0.0208,0.0217,0.0218,0.0205,0.0214,0.0217,0.0221,0.0232,0.0208,0.0214,0.0218,0.016,0.0159,0.0159,0,0,0.0228,0.0233,0.026,0.0272,0.0284,0.0286,0.0292,0.0294,0.0295,0.0308,0.0282,0.0272,0.0267,0.0256,0.0251,0.0281,0.0244,0.0275,0.0321,0.03,0.0304,0.0308,0.0273,0.0273,0.0278,0.0278,0.0279,0,0.0232,0.0271,0.0268,0.0298,0.0316,0.0299,0.0334,0.0336,0.0336,0.0345,0.0322,0.0314,0.0289,0.0305,0.0311,0.0295,0.0272,0.0299,0.0308,0.0311,0.0313,0.0277,0.0276,0.0282,0.0281,0.0281,0.0281,0,0.0282,0.0312,0.033,0.0367,0.0383,0.041,0.0415,0.0426,0.042,0.0419,0.0429,0.0393,0.0391,0.0374,0.0353,0.0363,0.0337,0.0317,0.0293,0.0323,0.0282,0.028,0.0286,0.0285,0.0284,0.0283,0,0,0.0302,0.0356,0.0365,0.04,0.0425,0.045,0.0479,0.0509,0.054,0.0518,0.0552,0.0522,0.0496,0.0488,0.0451,0.0425,0.0409,0.0384,0.0381,0.0354,0.0354,0.0321,0.0315,0.0392,0.0392,0.0392,0.0315,0,0.0347,0.0423,0.0435,0.0508,0.0549,0.055,0.0587,0.0606,0.061,0.0634,0.0593,0.0608,0.0542,0.0545,0.0508,0.0443,0.0408,0.0431,0.0327,0.0323,0.0294,0.0314,0.0321,0.0253,0.0313,0.0312,0.0312,0,0.0401,0.0448,0.0529,0.0598,0.0617,0.0654,0.0716,0.0748,0.0765,0.0768,0.076,0.0728,0.0698,0.0635,0.0532,0.0551,0.0462,0.0395,0.039,0.034,0.0287,0.0235,0.0246,0.0308,0.0308,0.0309,0.0309,0,0.044,0.0518,0.0591,0.0615,0.0683,0.0722,0.0758,0.0791,0.0844,0.0859,0.0896,0.0834,0.0829,0.0712,0.0571,0.0557,0.0447,0.0407,0.0289,0.0285,0.0261,0.0255,0.0332,0.0332,0.0332,0.0332,0.0332,0,0.0495,0.0555,0.0619,0.0663,0.0758,0.078,0.0881,0.0901,0.0956,0.1042,0.0975,0.1017,0.0851,0.0769,0.0613,0.0451,0.0478,0.0305,0.027,0.0282,0.0279,0.0305,0.0303,0.0329,0.033,0.033,0.0331,0,0.0537,0.0577,0.0668,0.075,0.0784,0.0855,0.0973,0.1047,0.1082,0.1192,0.1209,0.1164,0.1059,0.0873,0.0683,0.0525,0.0358,0.0288,0.0307,0.0276,0.0193,0.0196,0.015,0.0149,0.0147,0.0146,0.0145,0,0.0567,0.0617,0.0732,0.08,0.0846,0.0955,0.104,0.1106,0.1196,0.1291,0.1352,0.1287,0.1259,0.0953,0.0666,0.0388,0.0353,0.0198,0.0166,0.0208,0.0178,0.0182,0.0186,0.0151,0.015,0.015,0.0149,0,0.0623,0.0663,0.0742,0.0876,0.0979,0.1105,0.1229,0.1323,0.1424,0.1507,0.1588,0.1569,0.1301,0.1018,0.0634,0.0434,0.024,0.0174,0.0225,0.02,0.0203,0.0176,0.0181,0.0143,0.0144,0.0144,0.0144,0.0145,0.0666,0.0727,0.0832,0.0963,0.1084,0.1242,0.1357,0.1491,0.164,0.1777,0.1746,0.1713,0.1401,0.0905,0.0569,0.0203,0.0223,0.0075,0.0079,0.0084,0.0102,0.0103,0.0026,0.0026,0.0026,0.0026,0.0026,0,0.072,0.0794,0.0913,0.1073,0.1208,0.1273,0.1475,0.1592,0.1767,0.1869,0.192,0.1611,0.1301,0.0938,0.0404,0.0091,0.0066,-0.0028,0.0016,0.0024,0.0031,0.0047,-0.0044,-0.0045,-0.0046,-0.0046,0,0,0.0753,0.0866,0.0924,0.1144,0.1266,0.1456,0.1579,0.1739,0.1845,0.1933,0.1907,0.1856,0.1413,0.1016,0.0586,0.0276,0.0221,0.0203,0.0289,0.0399,0.041,0.0114,0.0151,0,0,0,0,0]}],[{"header":{"parameterUnit":"m.s-1","parameterCategory":2,"la1":30.2991,"la2":30.254,"lo1":-89.0895,"lo2":-89.0444,"dy":0.0017,"dx":0.0017,"nx":28,"ny":28,"refTime":"2024-07-02T21:00:00:Z","depth":"4","parameterNumber":2,"parameterNumberName":"U-component_of_CURRENTS"},"data":[0,0,0,0,0,0,0,0,0,0,0,0,0,0,0,0,0,0,0,0,0,0,0,0,0,0,0,0,0,0,0,0,0,0,0,0,0,0,0,0,0,0,0,0,0,0,0,0,0,0,0,0,0,0,0,0,0,0,0.185,0.1851,0,0.1914,0.1914,0.1915,0.1974,0.1975,0.1976,0.1976,0.2057,0.2058,0.2059,0,0,0,0,0,0,0,0,0,0,0,0,0,0.1791,0.1792,0.185,0.1851,0.1852,0.1914,0.1914,0.1915,0.1974,0.1975,0.1976,0.1977,0.2056,0.2058,0.206,0,0,0,0,0,0,0,0,0,0,0,0,0,0.183,0.1792,0.1849,0.1889,0.1894,0.1914,0.1914,0.1915,0.1974,0.1975,0.1976,0.1977,0.2056,0.2058,0.206,0.2046,0,0,0.2066,0.2067,0,0,0,0,0,0,0,0,0.1828,0.1832,0.1883,0.1887,0.1892,0.1939,0.1923,0.1961,0.1973,0.1942,0.1976,0.1978,0.2019,0.2024,0.2031,0.205,0.2054,0.2066,0.2067,0.2068,0.2069,0,0,0,0,0,0,0,0.1825,0.183,0.1873,0.1884,0.1889,0.1909,0.1915,0.1931,0.1971,0.1944,0.1949,0.1958,0.2021,0.2029,0.2033,0.2055,0.2066,0.2068,0.2069,0.207,0.2195,0.2197,0,0,0,0,0,0,0.1818,0.1827,0.1872,0.1876,0.1864,0.1909,0.1916,0.1921,0.1971,0.198,0.1957,0.1961,0.2024,0.2031,0.2036,0.2142,0.2068,0.207,0.2071,0.2193,0.2196,0.2198,0,0,0,0,0,0,0.1817,0.1821,0.1869,0.1854,0.1862,0.1909,0.1913,0.1922,0.1971,0.1981,0.199,0.2004,0.2026,0.2033,0.2087,0.2141,0.2071,0.2073,0.2191,0.2194,0.2197,0.2278,0,0,0,0,0,0,0.1815,0.182,0.1843,0.1854,0.1863,0.1906,0.1912,0.1922,0.1973,0.198,0.2023,0.2029,0.2027,0.2085,0.209,0.2143,0.2074,0.2188,0.2192,0.2196,0.2272,0.2283,0.2292,0,0,0,0,0,0.1812,0.1829,0.1843,0.185,0.1885,0.1907,0.1914,0.195,0.1975,0.1999,0.2034,0.203,0.2114,0.2088,0.2093,0.2148,0.2186,0.2191,0.2196,0.2268,0.2281,0.2292,0,0,0,0,0,0,0.1819,0.1837,0.1853,0.1877,0.1904,0.1918,0.1951,0.1973,0.2019,0.2041,0.205,0.2059,0.2128,0.2124,0.2095,0.2197,0.2152,0.2158,0.2205,0.2218,0.2228,0.2232,0.2076,0,0,0,0,0,0.1828,0.1848,0.1866,0.1893,0.1908,0.1939,0.1962,0.1986,0.2017,0.2042,0.2069,0.2106,0.2143,0.2171,0.2194,0.2245,0.2247,0.2286,0.2296,0.2305,0.2313,0.2366,0.2382,0.2214,0.2214,0.2214,0,0,0.1839,0.1854,0.1867,0.1897,0.1923,0.1953,0.1957,0.2003,0.2044,0.2041,0.2116,0.2141,0.2164,0.2225,0.2257,0.2236,0.2354,0.2311,0.2318,0.2322,0.2373,0.2389,0.2404,0.2217,0.2217,0.2216,0,0,0.1857,0.1885,0.1905,0.1932,0.1977,0.1992,0.2015,0.2052,0.2092,0.2154,0.217,0.2227,0.2279,0.2307,0.2327,0.2406,0.2404,0.2426,0.2486,0.2537,0.2552,0.2564,0.2584,0.2598,0.2434,0.2434,0.2434,0,0.1878,0.1896,0.1918,0.1947,0.1978,0.2015,0.2049,0.209,0.2146,0.2183,0.2193,0.2297,0.2318,0.2395,0.2431,0.2431,0.2451,0.2436,0.2551,0.2563,0.2574,0.2592,0.2606,0.2438,0.2438,0.2437,0.2437,0,0.1896,0.1932,0.195,0.1997,0.2034,0.2071,0.2121,0.2177,0.223,0.2266,0.2363,0.2396,0.2459,0.2482,0.2487,0.2586,0.2571,0.2555,0.2518,0.2596,0.2609,0.2623,0.2445,0.2443,0.2442,0.2441,0,0,0.1881,0.1949,0.196,0.1988,0.2065,0.2086,0.2175,0.2244,0.2303,0.2379,0.2455,0.2539,0.2568,0.2593,0.2613,0.2664,0.2763,0.2659,0.2659,0.2674,0.2872,0.2673,0.2668,0.2779,0.2782,0.2784,0.2847,0,0.1893,0.1943,0.1983,0.2045,0.2072,0.2145,0.2215,0.2293,0.2367,0.2449,0.252,0.2598,0.2608,0.2654,0.2714,0.2752,0.2804,0.2747,0.2797,0.2798,0.2609,0.2678,0.2793,0.2856,0.2859,0.2861,0.2863,0,0.1886,0.1922,0.1981,0.2059,0.208,0.2136,0.2249,0.232,0.2447,0.2511,0.2613,0.2662,0.2771,0.2758,0.2879,0.285,0.2878,0.2895,0.2898,0.2692,0.2623,0.2763,0.2886,0.2884,0.2882,0.2881,0.2879,0,0.1833,0.1914,0.196,0.1989,0.2089,0.215,0.2221,0.2347,0.2416,0.2565,0.263,0.2748,0.2826,0.2893,0.2955,0.2935,0.3062,0.3025,0.2868,0.2854,0.2978,0.2963,0.3108,0.3108,0.3107,0.3107,0.3107,0,0.1797,0.1834,0.1944,0.1966,0.2034,0.2127,0.2223,0.2315,0.2454,0.2531,0.2664,0.2734,0.2873,0.2956,0.2988,0.2967,0.3095,0.2886,0.2862,0.3008,0.2997,0.2986,0.2971,0.3109,0.3109,0.3109,0.3108,0,0.1716,0.179,0.1846,0.1966,0.2009,0.2065,0.2218,0.2275,0.2431,0.2541,0.2597,0.2762,0.2863,0.2961,0.3067,0.2986,0.2995,0.2958,0.3113,0.3095,0.2739,0.2728,0.2763,0.2757,0.2751,0.2747,0.2743,0,0.167,0.1696,0.1832,0.1869,0.1929,0.203,0.2092,0.2254,0.2316,0.2529,0.2557,0.272,0.281,0.2799,0.2914,0.2943,0.2916,0.2883,0.2801,0.2733,0.2708,0.2705,0.2702,0.2735,0.2733,0.2732,0.273,0,0.1583,0.1656,0.1701,0.1789,0.1859,0.1917,0.2023,0.2051,0.2231,0.2394,0.246,0.2512,0.2613,0.2679,0.2729,0.2746,0.2876,0.2825,0.2835,0.2758,0.2699,0.2679,0.2681,0.2712,0.2714,0.2716,0.2717,0,0.1525,0.1538,0.1622,0.1677,0.1755,0.1769,0.1844,0.1911,0.1994,0.2226,0.2246,0.2424,0.259,0.2578,0.2627,0.2624,0.2571,0.2463,0.2491,0.2513,0.24,0.2287,0.2159,0,0,0,0,0,0.1456,0.1456,0.1501,0.154,0.1608,0.1661,0.1772,0.1851,0.2028,0.2015,0.2124,0.221,0.2272,0.2364,0.2311,0.2503,0.2576,0.2425,0.2464,0.2608,0.263,0.2519,0,0,0,0,0,0,0.1408,0.1445,0.1454,0.141,0.1419,0.1472,0.1541,0.1661,0.1663,0.1861,0.1916,0.2063,0.2169,0.2293,0.2271,0.2296,0.2266,0.2541,0.2534,0.2596,0.2615,0.2633,0.2527,0,0,0,0,0]},{"header":{"parameterUnit":"m.s-1","parameterCategory":2,"la1":30.2991,"la2":30.254,"lo1":-89.0895,"lo2":-89.0444,"dy":0.0017,"dx":0.0017,"nx":28,"ny":28,"refTime":"2024-07-02T21:00:00:Z","depth":"4","parameterNumber":3,"parameterNumberName":"V-component_of_CURRENTS"},"data":[0,0,0,0,0,0,0,0,0,0,0,0,0,0,0,0,0,0,0,0,0,0,0,0,0,0,0,0,0,0,0,0,0,0,0,0,0,0,0,0,0,0,0,0,0,0,0,0,0,0,0,0,0,0,0,0,0,0,0.0147,0.0147,0,0.015,0.015,0.015,0.0144,0.0144,0.0143,0.0143,0.0125,0.0125,0.0125,0,0,0,0,0,0,0,0,0,0,0,0,0,0.0117,0.0118,0.0147,0.0147,0.0147,0.015,0.015,0.015,0.0144,0.0144,0.0143,0.0143,0.0125,0.0125,0.0125,0,0,0,0,0,0,0,0,0,0,0,0,0,0.0126,0.0118,0.0147,0.0144,0.0144,0.015,0.015,0.015,0.0144,0.0144,0.0143,0.0143,0.0126,0.0125,0.0125,0.0129,0,0,0.0123,0.0123,0,0,0,0,0,0,0,0,0.0126,0.0127,0.0144,0.0144,0.0144,0.0146,0.0133,0.0142,0.0144,0.0144,0.0143,0.0143,0.013,0.013,0.0131,0.0128,0.0127,0.0123,0.0123,0.0123,0.0123,0,0,0,0,0,0,0,0.0125,0.0127,0.0148,0.0144,0.0144,0.0136,0.0137,0.0135,0.0139,0.0144,0.0143,0.0144,0.013,0.0132,0.0131,0.0127,0.0123,0.0123,0.0123,0.0123,0.0119,0.012,0,0,0,0,0,0,0.0126,0.0127,0.0148,0.0148,0.0134,0.0137,0.0138,0.0146,0.0139,0.0138,0.0144,0.0143,0.0133,0.0131,0.013,0.0141,0.0123,0.0123,0.0122,0.0119,0.0119,0.012,0,0,0,0,0,0,0.0126,0.0128,0.0148,0.0137,0.0139,0.0138,0.0146,0.0146,0.0151,0.0139,0.0138,0.0149,0.0132,0.0131,0.0132,0.014,0.0122,0.0122,0.0119,0.0119,0.0119,0.0159,0,0,0,0,0,0,0.0125,0.0128,0.0135,0.0137,0.0139,0.0158,0.0147,0.0146,0.0151,0.0151,0.0144,0.0141,0.0132,0.0133,0.0132,0.0139,0.0122,0.0119,0.0119,0.0119,0.0157,0.016,0.0163,0,0,0,0,0,0.0124,0.0136,0.0136,0.0138,0.0149,0.0158,0.0159,0.0157,0.0152,0.0159,0.0152,0.0142,0.0134,0.0133,0.0132,0.0139,0.0119,0.0119,0.0119,0.0156,0.016,0.0163,0,0,0,0,0,0,0.0125,0.0137,0.0136,0.0151,0.0157,0.0158,0.0164,0.0162,0.0163,0.0162,0.0148,0.0146,0.0149,0.0138,0.0138,0.0137,0.0123,0.0123,0.0151,0.0154,0.0157,0.0171,0.0121,0,0,0,0,0,0.013,0.0144,0.0149,0.0161,0.0165,0.0166,0.0169,0.0169,0.0169,0.0169,0.0163,0.0154,0.0149,0.0147,0.0141,0.0145,0.0125,0.0146,0.0149,0.0152,0.0161,0.0135,0.0137,0.0121,0.0121,0.0121,0,0,0.0132,0.0141,0.0148,0.0163,0.0167,0.0183,0.0167,0.0178,0.0191,0.0167,0.018,0.0166,0.0152,0.0156,0.0155,0.0148,0.0145,0.0152,0.0155,0.0163,0.0136,0.0138,0.0139,0.0121,0.0121,0.0121,0,0,0.0149,0.0155,0.0174,0.0183,0.0194,0.0196,0.0201,0.0205,0.0207,0.0218,0.02,0.019,0.0189,0.0176,0.0171,0.0185,0.0161,0.0182,0.021,0.0184,0.0186,0.0186,0.0158,0.0156,0.0183,0.0184,0.0184,0,0.0152,0.018,0.0179,0.0201,0.0214,0.0205,0.023,0.0232,0.0235,0.0241,0.0228,0.0217,0.0199,0.0201,0.0204,0.0192,0.0175,0.0199,0.0189,0.0189,0.0189,0.016,0.0157,0.0185,0.0185,0.0185,0.0185,0,0.0185,0.0207,0.0219,0.0247,0.0258,0.0278,0.0282,0.0291,0.0289,0.0289,0.029,0.0262,0.0257,0.0243,0.023,0.0225,0.021,0.0195,0.0182,0.0193,0.0161,0.0158,0.0188,0.0188,0.0187,0.0186,0,0,0.0196,0.0236,0.0242,0.0269,0.0287,0.0305,0.0324,0.0345,0.0365,0.0349,0.0367,0.034,0.0321,0.0313,0.0285,0.0258,0.0235,0.0233,0.0231,0.0209,0.0179,0.0157,0.0151,0.022,0.022,0.022,0.0154,0,0.0226,0.0278,0.0288,0.0341,0.0369,0.0372,0.0398,0.041,0.0412,0.0424,0.0387,0.0393,0.035,0.0349,0.0314,0.0261,0.0229,0.0254,0.0168,0.0165,0.0148,0.0147,0.0219,0.0151,0.015,0.015,0.0149,0,0.026,0.0294,0.0351,0.0403,0.0416,0.0444,0.0487,0.0511,0.0515,0.0516,0.0502,0.0473,0.0438,0.0397,0.0307,0.0328,0.0261,0.0208,0.0204,0.017,0.0138,0.0138,0.0143,0.0143,0.0144,0.0144,0.0145,0,0.0282,0.034,0.0391,0.0409,0.0461,0.049,0.052,0.054,0.0577,0.0577,0.0595,0.0539,0.0525,0.0434,0.0323,0.032,0.0215,0.0194,0.0108,0.0105,0.0127,0.0127,0.0127,0.0127,0.0127,0.0127,0.0127,0,0.0315,0.0358,0.0411,0.0442,0.0515,0.0533,0.0606,0.0622,0.0655,0.0707,0.065,0.0662,0.0535,0.0459,0.0346,0.0218,0.0231,0.0115,0.0089,0.0144,0.0146,0.0124,0.0125,0.0125,0.0125,0.0126,0.0126,0,0.0334,0.0367,0.0435,0.05,0.0531,0.0585,0.0677,0.0727,0.0747,0.0809,0.0815,0.0759,0.0662,0.052,0.0367,0.0259,0.013,0.0078,0.015,0.0128,0.003,0.0033,-0.0019,-0.002,-0.0021,-0.0022,-0.0023,0,0.0348,0.0386,0.0482,0.0535,0.0572,0.0657,0.0724,0.0774,0.083,0.087,0.09,0.0826,0.0768,0.054,0.0376,0.0153,0.0114,0.0035,0.0028,0.0037,0.0016,0.0021,0.0026,-0.0024,-0.0025,-0.0025,-0.0025,0,0.0376,0.0413,0.0471,0.0581,0.0663,0.076,0.0852,0.0898,0.0962,0.0978,0.0976,0.086,0.0744,0.0551,0.0373,0.0211,0.0079,0.0023,0.0024,0.0017,0.0029,0.0011,0.0017,-0.0029,-0.0028,-0.0028,-0.0028,0,0.04,0.0443,0.0526,0.0626,0.0732,0.0834,0.0881,0.0949,0.1005,0.1039,0.1034,0.0908,0.0833,0.0582,0.0421,0.0255,0.0207,0.0135,0.0129,0.0131,0.0185,0.0223,0.0206,0,0,0,0,0,0.0423,0.0478,0.0567,0.0679,0.0783,0.0851,0.0959,0.0996,0.1051,0.1061,0.1052,0.0946,0.0712,0.0608,0.0441,0.0383,0.0165,0.0177,0.0076,-0.005,-0.0045,-0.0012,0,0,0,0,0,0,0.044,0.052,0.0566,0.0707,0.079,0.0912,0.0984,0.1022,0.1026,0.1048,0.093,0.0882,0.0656,0.0812,0.0433,0.0383,0.0288,0.0074,0.0069,-0.0052,-0.0048,-0.0045,-0.0009,0,0,0,0,0]}]]